CW1734 Weather Reports


Display with metric or nautical units.
time (UTC)temp
F
wind
direction
speed
MPH
gust
MPH
rain 1hr
in
rain 24hr
in
rain mn
in
humidity
%
barometer
mb
20260505010903 55 10 0.0 5.0 0.00 0.00 0.00 91 1013.3
20260505005904 55 16 0.0 0.0 0.00 0.00 0.00 92 1013.3
20260505005404 55 16 0.0 0.0 0.00 0.00 0.00 91 1013.3
20260505004903 55 16 0.0 0.0 0.00 0.00 0.00 91 1013.3
20260505004404 55 32 0.0 0.0 0.00 0.00 0.00 91 1013.3
20260505003903 55 33 0.0 0.0 0.00 0.00 0.00 91 1013.3
20260505003403 55 34 0.0 0.0 0.00 0.00 0.00 91 1013.3
20260505002904 55 34 0.0 0.0 0.00 0.00 0.00 91 1013.3
20260505002404 55 35 0.0 0.0 0.00 0.00 0.00 91 1013.3
20260505001903 55 41 0.0 0.0 0.00 0.00 0.00 91 1013.3
20260505001403 55 37 0.0 0.0 0.00 0.00 0.00 91 1013.2
20260505000904 55 50 0.0 0.0 0.00 0.00 0.00 91 1013.2
20260505000405 55 19 0.0 0.0 0.00 0.00 0.00 91 1013.4
20260504235904 55 29 0.0 0.0 0.00 0.00 0.00 91 1013.4
20260504235404 55 32 0.0 0.0 0.00 0.00 0.00 91 1013.4
20260504233903 55 32 0.0 0.0 0.00 0.00 0.00 91 1013.4
20260504233403 55 32 0.0 0.0 0.00 0.00 0.00 91 1013.4
20260504232903 56 32 0.0 0.0 0.00 0.00 0.00 91 1013.4
20260504231903 56 32 0.0 0.0 0.00 0.00 0.00 91 1013.4
20260504231403 56 32 0.0 0.0 0.00 0.00 0.00 91 1013.4
20260504230904 56 25 0.0 0.0 0.00 0.00 0.00 91 1013.4
20260504230403 56 14 0.0 0.0 0.00 0.00 0.00 90 1013.4
20260504225904 56 13 0.0 0.0 0.00 0.00 0.00 90 1013.4
20260504224904 56 11 0.0 0.0 0.00 0.00 0.00 90 1013.6
20260504224403 56 10 0.0 0.0 0.00 0.00 0.00 90 1013.6
20260504223903 56 10 0.0 0.0 0.00 0.00 0.00 90 1013.6
20260504222904 56 312 0.0 0.0 0.00 0.00 0.00 89 1013.6
20260504222404 56 13 0.0 0.0 0.00 0.00 0.00 89 1013.6
20260504221903 57 19 2.0 3.0 0.00 0.00 0.00 89 1013.6
20260504221403 57 2 1.0 5.0 0.00 0.00 0.00 89 1013.7
20260504220904 57 14 2.0 6.0 0.00 0.00 0.00 89 1013.7
20260504215904 57 17 3.0 6.0 0.00 0.00 0.00 88 1013.6
20260504215404 57 2 4.0 7.0 0.00 0.00 0.00 88 1013.7
20260504214904 57 20 4.0 6.0 0.00 0.00 0.00 88 1013.7
20260504214403 57 26 2.0 3.0 0.00 0.00 0.00 88 1013.7
20260504213903 57 47 2.0 5.0 0.00 0.00 0.00 88 1013.7
20260504213403 57 36 1.0 3.0 0.00 0.00 0.00 88 1013.7
20260504212403 57 4 0.0 3.0 0.00 0.00 0.00 88 1013.7
20260504211904 57 1 2.0 5.0 0.00 0.00 0.00 87 1013.6
20260504210904 57 31 0.0 0.0 0.00 0.00 0.00 87 1013.6
20260504210404 57 31 0.0 0.0 0.00 0.00 0.00 86 1013.6
20260504205903 57 32 0.0 0.0 0.00 0.00 0.00 86 1013.6
20260504205403 57 37 0.0 0.0 0.00 0.00 0.00 86 1013.6
20260504204904 57 304 0.0 0.0 0.00 0.00 0.00 85 1013.6
20260504204404 57 304 0.0 0.0 0.00 0.00 0.00 85 1013.6
20260504203903 56 306 0.0 0.0 0.00 0.00 0.00 84 1013.6
20260504203403 57 306 0.0 0.0 0.00 0.00 0.00 84 1013.5
20260504202904 57 307 0.0 0.0 0.00 0.00 0.00 84 1013.5
20260504202403 57 307 0.0 0.0 0.00 0.00 0.00 84 1013.5
20260504201404 57 307 0.0 0.0 0.00 0.00 0.00 83 1013.5
20260504200904 57 306 0.0 0.0 0.00 0.00 0.00 83 1013.5
20260504200404 57 306 0.0 0.0 0.00 0.00 0.00 83 1013.5
20260504195903 57 306 0.0 0.0 0.00 0.00 0.00 83 1013.5
20260504194903 57 306 0.0 0.0 0.00 0.00 0.00 83 1013.5
20260504194404 57 306 1.0 3.0 0.00 0.00 0.00 83 1013.5
20260504193404 57 310 2.0 3.0 0.00 0.00 0.00 83 1013.0
20260504192904 57 310 1.0 5.0 0.00 0.00 0.00 83 1013.0
20260504192404 57 317 2.0 5.0 0.00 0.00 0.00 83 1013.0
20260504191904 57 320 1.0 3.0 0.00 0.00 0.00 83 1013.0
20260504190903 57 332 2.0 5.0 0.00 0.00 0.00 82 1013.0
20260504185904 58 321 3.0 3.0 0.00 0.00 0.00 82 1013.0
20260504185403 58 306 3.0 5.0 0.00 0.00 0.00 81 1013.0
20260504184903 58 311 3.0 5.0 0.00 0.00 0.00 82 1013.0
20260504184403 58 333 2.0 3.0 0.00 0.00 0.00 81 1013.0
20260504183903 59 328 3.0 5.0 0.00 0.00 0.00 81 1013.0
20260504182904 59 326 3.0 5.0 0.00 0.00 0.00 79 1012.9
20260504182404 60 14 2.0 5.0 0.00 0.00 0.00 79 1012.9
20260504181403 61 141 1.0 3.0 0.00 0.00 0.00 78 1012.9
20260504180903 61 183 1.0 3.0 0.00 0.00 0.00 76 1012.9
20260504175904 61 160 2.0 5.0 0.00 0.00 0.00 76 1012.7
20260504175403 61 106 2.0 3.0 0.00 0.00 0.00 76 1012.7
20260504174903 61 101 0.0 3.0 0.00 0.00 0.00 76 1012.7
20260504174403 61 147 2.0 7.0 0.00 0.00 0.00 76 1012.7
20260504173904 61 145 2.0 5.0 0.00 0.00 0.00 76 1012.8
20260504173403 61 106 2.0 5.0 0.00 0.00 0.00 76 1012.8
20260504172903 61 168 3.0 6.0 0.00 0.00 0.00 77 1012.8
20260504172403 61 167 4.0 6.0 0.00 0.00 0.00 76 1012.8
20260504171903 61 156 0.0 0.0 0.00 0.00 0.00 77 1012.8
20260504171404 61 118 0.0 0.0 0.00 0.00 0.00 78 1012.8
20260504170403 61 74 0.0 2.0 0.00 0.00 0.00 77 1012.7
20260504160404 62 73 4.0 6.0 0.00 0.00 0.00 72 1012.7
20260504150904 66 227 5.0 10.0 0.00 0.00 0.00 70 1012.7
20260504140904 67 190 2.0 7.0 0.00 0.00 0.00 68 1012.9
20260504140403 65 220 3.0 6.0 0.00 0.00 0.00 70 1013.0
20260504130404 64 308 2.0 3.0 0.00 0.00 0.00 66 1013.5
20260504110403 62 54 3.0 7.0 0.00 0.00 0.00 73 1013.5
20260504100404 58 339 1.0 5.0 0.00 0.00 0.00 79 1013.8
20260504081903 56 86 2.0 5.0 0.00 0.00 0.00 85 1013.5
20260504081404 55 101 2.0 5.0 0.00 0.00 0.00 85 1013.5
20260504080903 55 92 0.0 3.0 0.00 0.00 0.00 86 1013.5
20260504080403 55 95 2.0 5.0 0.00 0.00 0.00 86 1013.2
20260504070403 54 37 2.0 5.0 0.00 0.00 0.00 86 1012.8
20260504050403 52 300 3.0 5.0 0.00 0.00 0.00 89 1011.9
20260504045903 53 302 3.0 5.0 0.00 0.00 0.00 89 1011.9
20260504045404 53 293 2.0 5.0 0.00 0.00 0.00 89 1011.9
20260504044403 53 311 4.0 6.0 0.00 0.00 0.00 89 1012.0
20260504043403 53 283 3.0 5.0 0.00 0.00 0.00 90 1012.0
20260504042903 53 237 0.0 2.0 0.00 0.00 0.00 89 1011.9
20260504041903 53 272 1.0 3.0 0.00 0.00 0.00 89 1011.9
20260504041403 53 287 0.0 0.0 0.00 0.00 0.00 90 1011.9
20260504040903 53 284 0.0 0.0 0.00 0.00 0.00 89 1011.9
20260504040403 53 284 0.0 0.0 0.00 0.00 0.00 89 1011.9
20260504035903 53 285 2.0 3.0 0.00 0.00 0.00 89 1011.9
20260504035403 53 275 2.0 5.0 0.00 0.00 0.00 89 1011.9
20260504034903 53 274 1.0 3.0 0.00 0.00 0.00 89 1011.8
20260504034403 53 274 2.0 3.0 0.00 0.00 0.00 89 1011.8
20260504033903 53 281 2.0 5.0 0.00 0.00 0.00 89 1011.8
20260504033403 53 250 0.0 0.0 0.00 0.00 0.00 89 1011.8
20260504032904 53 267 0.0 0.0 0.00 0.00 0.00 89 1011.8
20260504031904 53 211 0.0 0.0 0.00 0.00 0.00 89 1011.7
20260504031404 53 210 0.0 2.0 0.00 0.00 0.00 89 1011.7
20260504030903 53 210 1.0 3.0 0.00 0.00 0.00 89 1011.8
20260504030403 53 201 1.0 3.0 0.00 0.00 0.00 89 1011.8
20260504025903 53 201 3.0 5.0 0.00 0.00 0.00 89 1011.8
20260504025404 53 233 2.0 3.0 0.00 0.00 0.00 89 1011.8
20260504024904 53 264 0.0 3.0 0.00 0.00 0.00 89 1011.8
20260504024404 53 251 1.0 3.0 0.00 0.00 0.00 89 1011.8
20260504023903 53 226 2.0 5.0 0.00 0.00 0.00 89 1011.8
20260504023403 53 226 4.0 8.0 0.00 0.00 0.00 89 1011.8
20260504022903 53 210 2.0 3.0 0.00 0.00 0.00 89 1011.8
20260504022404 53 214 0.0 3.0 0.00 0.00 0.00 89 1011.7
20260504021903 53 196 1.0 5.0 0.00 0.00 0.00 89 1011.7
20260504020904 53 239 2.0 3.0 0.00 0.00 0.00 89 1011.6
20260504020404 53 220 0.0 3.0 0.00 0.00 0.00 89 1011.7
20260504015903 53 277 1.0 3.0 0.00 0.00 0.00 89 1011.7
20260504015404 53 200 1.0 3.0 0.00 0.00 0.00 89 1011.7
20260504014903 53 228 1.0 6.0 0.00 0.00 0.00 89 1011.7
20260504014403 53 289 1.0 3.0 0.00 0.00 0.00 89 1011.7
20260504013904 53 267 0.0 3.0 0.00 0.00 0.00 89 1011.7
20260504012403 53 229 0.0 2.0 0.00 0.00 0.00 89 1011.6
20260504011904 53 293 0.0 2.0 0.00 0.00 0.00 89 1011.8